Tracking 30157 objects as of 13-Feb-2025
HD Live streaming from Space Station
objects crossing your sky now

STARLINK-4288

Track STARLINK-4288 now!
10-day predictions
STARLINK-4288 is classified as:


NORAD ID: 53005
Int'l Code: 2022-076V
Perigee: 545.9 km
Apogee: 547.9 km
Inclination: 53.2 °
Period: 95.4 minutes
Semi major axis: 6917 km
RCS: Unknown
Launch date: July 7, 2022
Source: United States (US)
Launch site: AIR FORCE EASTERN TEST RANGE (AFETR)
Your satellite tracking list
Your tracking list is empty




NASA's NSSDC Master Catalog

Two Line Element Set (TLE):
1 53005U 22076V   25043.43968537  .00001161  00000-0  91035-4 0  9990
2 53005  53.2184  46.0184 0001441  89.3845 270.7313 15.08839241143932
Source of the keplerian elements: AFSPC